EW1382 Weather Reports


Display with metric or nautical units.
time (UTC)temp
F
wind
direction
speed
MPH
gust
MPH
rain 1hr
in
rain 24hr
in
rain mn
in
humidity
%
barometer
mb
20170324020313 30 119 3.0 4.0 0.00 0.00 0.00 57 1029.7
20170324014815 30 117 2.0 3.0 0.00 0.00 0.00 53 1029.9
20170324013329 30 108 2.0 5.0 0.00 0.00 0.00 54 1030.0
20170324011813 30 106 3.0 6.0 0.00 0.00 0.00 54 1029.9
20170324010323 31 117 3.0 5.0 0.00 0.00 0.00 54 1030.1
20170324004832 31 113 3.0 6.0 0.00 0.00 0.00 54 1030.3
20170324003319 30 119 4.0 6.0 0.00 0.00 0.00 55 1030.3
20170324001827 30 116 4.0 5.0 0.00 0.00 0.00 53 1030.7
20170324000314 31 103 3.0 4.0 0.00 0.00 0.00 51 1031.0
20170323234822 31 106 2.0 4.0 0.00 0.00 0.00 52 1031.0
20170323233327 32 108 3.0 5.0 0.00 0.00 0.00 52 1030.8
20170323231827 32 104 4.0 6.0 0.00 0.00 0.00 49 1030.5
20170323230320 33 85 3.0 6.0 0.00 0.00 0.00 49 1030.4
20170323224824 34 108 4.0 6.0 0.00 0.00 0.00 47 1030.3
20170323223315 34 105 5.0 7.0 0.00 0.00 0.00 44 1030.2
20170323221819 35 134 4.0 5.0 0.00 0.00 0.00 44 1030.7
20170323220326 35 117 5.0 7.0 0.00 0.00 0.00 44 1030.6
20170323214833 35 98 4.0 6.0 0.00 0.00 0.00 41 1030.9
20170323213321 35 119 4.0 6.0 0.00 0.00 0.00 43 1031.1
20170323211824 35 117 5.0 8.0 0.00 0.00 0.00 41 1031.2
20170323210332 35 121 5.0 7.0 0.00 0.00 0.00 43 1031.3
20170323204815 35 108 4.0 6.0 0.00 0.00 0.00 38 1031.6
20170323203329 36 115 1.0 5.0 0.00 0.00 0.00 38 1031.8
20170323201812 36 104 3.0 5.0 0.00 0.00 0.00 38 1032.2
20170323200326 38 56 1.0 3.0 0.00 0.00 0.00 34 1032.4
20170323194830 36 91 2.0 3.0 0.00 0.00 0.00 37 1032.5
20170323193323 36 147 2.0 6.0 0.00 0.00 0.00 35 1032.7
20170323191824 36 217 2.0 5.0 0.00 0.00 0.00 35 1033.0
20170323190334 36 305 2.0 4.0 0.00 0.00 0.00 33 1033.1
20170323184819 36 18 1.0 5.0 0.00 0.00 0.00 35 1033.4
20170323183328 35 311 1.0 5.0 0.00 0.00 0.00 38 1033.7
20170323181816 35 162 2.0 7.0 0.00 0.00 0.00 37 1034.0
20170323180325 35 169 3.0 8.0 0.00 0.00 0.00 38 1034.2
20170323174828 34 229 3.0 7.0 0.00 0.00 0.00 38 1034.4
20170323173321 33 127 3.0 7.0 0.00 0.00 0.00 40 1034.5
20170323171825 33 275 2.0 9.0 0.00 0.00 0.00 41 1034.6
20170323170319 33 153 4.0 7.0 0.00 0.00 0.00 40 1034.7
20170323164821 33 311 0.0 9.0 0.00 0.00 0.00 41 1034.9
20170323163313 33 146 3.0 6.0 0.00 0.00 0.00 43 1035.0
20170323161818 32 264 2.0 7.0 0.00 0.00 0.00 44 1035.1
20170323160326 31 132 2.0 6.0 0.00 0.00 0.00 47 1035.2
20170323154827 32 240 3.0 5.0 0.00 0.00 0.00 46 1035.4
20170323153333 30 334 2.0 5.0 0.00 0.00 0.00 45 1035.6
20170323151821 31 134 0.0 3.0 0.00 0.00 0.00 48 1035.5
20170323150331 30 127 4.0 8.0 0.00 0.00 0.00 46 1035.6
20170323144814 30 212 2.0 6.0 0.00 0.00 0.00 49 1035.7
20170323143327 29 205 2.0 5.0 0.00 0.00 0.00 52 1035.6
20170323141831 28 277 2.0 7.0 0.00 0.00 0.00 54 1035.6
20170323140324 28 240 3.0 5.0 0.00 0.00 0.00 57 1035.6
20170323134827 27 271 1.0 3.0 0.00 0.00 0.00 61 1035.6
20170323133316 25 283 2.0 7.0 0.00 0.00 0.00 65 1035.6
20170323131824 24 264 2.0 4.0 0.00 0.00 0.00 67 1035.5
20170323130313 23 303 3.0 5.0 0.00 0.00 0.00 69 1035.5
20170323124822 23 259 0.0 3.0 0.00 0.00 0.00 72 1035.4
20170323123331 21 207 1.0 4.0 0.00 0.00 0.00 74 1035.3
20170323121818 19 271 0.0 3.0 0.00 0.00 0.00 78 1035.2
20170323120324 17 235 1.0 2.0 0.00 0.00 0.00 80 1035.0
20170323114827 15 238 1.0 3.0 0.00 0.00 0.00 84 1034.9
20170323113336 13 224 0.0 0.0 0.00 0.00 0.00 83 1034.8
20170323111817 12 224 0.0 1.0 0.00 0.00 0.00 81 1034.6
20170323110328 14 250 0.0 1.0 0.00 0.00 0.00 80 1034.4
20170323104829 14 243 0.0 2.0 0.00 0.00 0.00 81 1034.4
20170323103319 14 248 0.0 2.0 0.00 0.00 0.00 82 1034.3
20170323101824 14 229 0.0 1.0 0.00 0.00 0.00 81 1034.1
20170323100331 14 229 0.0 1.0 0.00 0.00 0.00 79 1033.9
20170323094816 15 250 0.0 1.0 0.00 0.00 0.00 79 1033.7
20170323093325 15 238 0.0 1.0 0.00 0.00 0.00 79 1033.7
20170323091829 15 236 0.0 2.0 0.00 0.00 0.00 80 1033.5
20170323090322 15 236 0.0 1.0 0.00 0.00 0.00 81 1033.4
20170323084826 15 234 0.0 1.0 0.00 0.00 0.00 81 1033.2
20170323083319 14 236 0.0 1.0 0.00 0.00 0.00 81 1033.1
20170323081824 15 249 0.0 0.0 0.00 0.00 0.00 80 1033.1
20170323080316 15 249 0.0 0.0 0.00 0.00 0.00 78 1033.0
20170323074821 16 240 1.0 1.0 0.00 0.00 0.00 77 1033.0
20170323073328 16 269 0.0 1.0 0.00 0.00 0.00 77 1032.9
20170323071816 17 276 0.0 1.0 0.00 0.00 0.00 75 1032.8
20170323070325 17 251 0.0 2.0 0.00 0.00 0.00 74 1032.8
20170323064831 17 278 0.0 1.0 0.00 0.00 0.00 73 1032.6
20170323063320 18 321 0.0 2.0 0.00 0.00 0.00 72 1032.8
20170323061824 18 301 1.0 4.0 0.00 0.00 0.00 72 1032.6
20170323060317 18 289 0.0 4.0 0.00 0.00 0.00 71 1032.6
20170323054821 18 295 2.0 4.0 0.00 0.00 0.00 71 1032.5
20170323053315 18 306 1.0 3.0 0.00 0.00 0.00 72 1032.3
20170323051819 18 306 1.0 2.0 0.00 0.00 0.00 70 1032.3
20170323050327 19 304 1.0 3.0 0.00 0.00 0.00 69 1032.2
20170323044815 19 314 0.0 2.0 0.00 0.00 0.00 69 1032.1
20170323043325 19 297 1.0 3.0 0.00 0.00 0.00 69 1032.1
20170323041812 19 317 1.0 4.0 0.00 0.00 0.00 68 1032.1
20170323040319 19 296 0.0 3.0 0.00 0.00 0.00 66 1032.0
20170323034827 20 293 2.0 3.0 0.00 0.00 0.00 65 1031.9
20170323033315 20 281 2.0 5.0 0.00 0.00 0.00 64 1031.9
20170323031820 20 284 1.0 4.0 0.00 0.00 0.00 63 1031.9
20170323030326 20 276 2.0 4.0 0.00 0.00 0.00 62 1031.9
20170323024827 20 294 2.0 4.0 0.00 0.00 0.00 62 1031.8
20170323023318 20 304 2.0 5.0 0.00 0.00 0.00 61 1031.8
20170323021821 20 293 1.0 4.0 0.00 0.00 0.00 61 1031.6